,,Stat6,,Stat2,,Stat8,,Stat9,,Stat10,,Wind1,,Wind1,
time,status,PA1M_AVG,status,PR1M_SUM,status,RH1M_AVG,status,SR1M_AVG,status,TA1M_AVG,status,W1dAve1m,status,W1sAve1m,
2005-10-08, 00:00:00,VALID,917.6,VALID,0,VALID,100,VALID,0,VALID,19.1547,VALID,127,VALID,0.448847,
2005-10-08, 00:01:00,VALID,917.585,VALID,0,VALID,100,VALID,0,VALID,19.1311,VALID,127,VALID,0.395712,
2005-10-08, 00:02:00,VALID,917.57,VALID,0,VALID,100,VALID,-0.0169808,VALID,19.1283,VALID,127,VALID,0.615473,
2005-10-08, 00:03:00,VALID,917.555,VALID,0,VALID,100,VALID,0,VALID,19.1216,VALID,133,VALID,0.494186,
2005-10-08, 00:04:00,VALID,917.537,VALID,0,VALID,100,VALID,0.0169808,VALID,19.1288,VALID,137,VALID,0.374637,
2005-10-08, 00:05:00,VALID,917.508,VALID,0,VALID,100,VALID,-0.0169808,VALID,19.1219,VALID,151,VALID,0.486662,
2005-10-08, 00:06:00,VALID,917.495,VALID,0,VALID,100,VALID,0,VALID,19.1216,VALID,142,VALID,0.435937,
2005-10-08, 00:07:00,VALID,917.477,VALID,0,VALID,100,VALID,-0.0169808,VALID,19.1313,VALID,132,VALID,0.422783,
2005-10-08, 00:08:00,VALID,917.46,VALID,0,VALID,100,VALID,0,VALID,19.1383,VALID,132,VALID,0.505859,
2005-10-08, 00:09:00,VALID,917.438,VALID,0,VALID,100,VALID,0,VALID,19.1385,VALID,132,VALID,0.610305,
2005-10-08, 00:10:00,VALID,917.43,VALID,0,VALID,100,VALID,0.0169808,VALID,19.1244,VALID,132,VALID,0.592014,
2005-10-08, 00:11:00,VALID,917.429,VALID,0,VALID,100,VALID,0.0169808,VALID,19.1283,VALID,131,VALID,0.446615,
2005-10-08, 00:12:00,VALID,917.434,VALID,0,VALID,100,VALID,0.0169808,VALID,19.1283,VALID,119,VALID,0.437881,
2005-10-08, 00:13:00,VALID,917.438,VALID,0,VALID,100,VALID,0.0169808,VALID,19.1115,VALID,106,VALID,0.524368,
2005-10-08, 00:14:00,VALID,917.453,VALID,0,VALID,100,VALID,0.0509425,VALID,19.1055,VALID,69,VALID,0.670313,
2005-10-08, 00:15:00,VALID,917.455,VALID,0,VALID,100,VALID,0.0169808,VALID,19.0864,VALID,60,VALID,0.912946,
2005-10-08, 00:16:00,VALID,917.45,VALID,0,VALID,100,VALID,0.0169808,VALID,19.0737,VALID,63,VALID,0.95694,
2005-10-08, 00:17:00,VALID,917.454,VALID,0,VALID,100,VALID,0.0509425,VALID,19.0538,VALID,50,VALID,0.783854,
2005-10-08, 00:18:00,VALID,917.431,VALID,0,VALID,100,VALID,0.0339617,VALID,19.0315,VALID,62,VALID,0.827943,
2005-10-08, 00:19:00,VALID,917.424,VALID,0,VALID,100,VALID,0.0169808,VALID,19.0114,VALID,64,VALID,0.80369,
2005-10-08, 00:20:00,VALID,917.398,VALID,0,VALID,100,VALID,0.0509425,VALID,19.0017,VALID,64,VALID,0.543064,
2005-10-08, 00:21:00,VALID,917.374,VALID,0,VALID,100,VALID,0.0339617,VALID,19.0047,VALID,64,VALID,0.467607,
2005-10-08, 00:22:00,VALID,917.342,VALID,0,VALID,100,VALID,0.0339617,VALID,18.995,VALID,64,VALID,0.339939,
2005-10-08, 00:23:00,VALID,917.334,VALID,0,VALID,100,VALID,0.0509425,VALID,18.995,VALID,64,VALID,0.362614,
2005-10-08, 00:24:00,VALID,917.307,VALID,0,VALID,100,VALID,0.101885,VALID,19.0047,VALID,64,VALID,0.456759,
2005-10-08, 00:25:00,VALID,917.301,VALID,0,VALID,100,VALID,0.0509425,VALID,19.0111,VALID,64,VALID,0.445652,
2005-10-08, 00:26:00,VALID,917.274,VALID,0,VALID,100,VALID,0.0509425,VALID,19.0241,VALID,63,VALID,0.46875,
2005-10-08, 00:27:00,VALID,917.253,VALID,0,VALID,100,VALID,0.0509425,VALID,19.0308,VALID,60,VALID,0.516513,
2005-10-08, 00:28:00,VALID,917.237,VALID,0,VALID,100,VALID,0,VALID,19.0372,VALID,60,VALID,0.491806,
2005-10-08, 00:29:00,VALID,917.221,VALID,0,VALID,100,VALID,0.0339617,VALID,19.0501,VALID,60,VALID,0.241848,
2005-10-08, 00:30:00,VALID,917.205,VALID,0,VALID,100,VALID,0.0509425,VALID,19.0467,VALID,60,VALID,0.123884,
2005-10-08, 00:31:00,VALID,917.195,VALID,0,VALID,100,VALID,0.0509425,VALID,19.0536,VALID,60,VALID,0.0914634,
2005-10-08, 00:32:00,VALID,917.194,VALID,0,VALID,100,VALID,0.0169808,VALID,19.0672,VALID,60,VALID,0.242378,
2005-10-08, 00:33:00,VALID,917.201,VALID,0,VALID,100,VALID,-0.0509425,VALID,19.0677,VALID,60,VALID,0.0545015,
2005-10-08, 00:34:00,VALID,917.19,VALID,0,VALID,100,VALID,-0.0509425,VALID,19.0806,VALID,60,VALID,0.0303622,
2005-10-08, 00:35:00,VALID,917.171,VALID,0,VALID,100,VALID,-0.0509425,VALID,19.097,VALID,60,VALID,0.283918,
2005-10-08, 00:36:00,VALID,917.154,VALID,0,VALID,100,VALID,-0.101885,VALID,19.1035,VALID,74,VALID,0.540334,
2005-10-08, 00:37:00,VALID,917.136,VALID,0,VALID,100,VALID,-0.0679233,VALID,19.1099,VALID,87,VALID,0.608487,
2005-10-08, 00:38:00,VALID,917.114,VALID,0,VALID,100,VALID,-0.0679233,VALID,19.1229,VALID,93,VALID,0.525436,
2005-10-08, 00:39:00,VALID,917.101,VALID,0,VALID,100,VALID,-0.0849042,VALID,19.1293,VALID,95,VALID,0.350038,
2005-10-08, 00:40:00,VALID,917.083,VALID,0,VALID,100,VALID,-0.101885,VALID,19.1388,VALID,95,VALID,0.335756,
2005-10-08, 00:41:00,VALID,917.07,VALID,0,VALID,100,VALID,-0.0509425,VALID,19.1581,VALID,95,VALID,0.300509,
2005-10-08, 00:42:00,VALID,917.053,VALID,0,VALID,100,VALID,-0.0679233,VALID,19.1713,VALID,93,VALID,0.377604,
2005-10-08, 00:43:00,VALID,917.047,VALID,0,VALID,100,VALID,-0.0509425,VALID,19.1778,VALID,85,VALID,0.677144,
2005-10-08, 00:44:00,VALID,917.041,VALID,0,VALID,100,VALID,-0.0849042,VALID,19.1775,VALID,85,VALID,0.571801,
2005-10-08, 00:45:00,VALID,917.041,VALID,0,VALID,100,VALID,-0.0679233,VALID,19.1773,VALID,85,VALID,0.342483,
2005-10-08, 00:46:00,VALID,917.042,VALID,0,VALID,100,VALID,-0.0169808,VALID,19.1807,VALID,85,VALID,0.353609,
2005-10-08, 00:47:00,VALID,917.053,VALID,0,VALID,100,VALID,-0.0339617,VALID,19.1768,VALID,85,VALID,0.177024,
2005-10-08, 00:48:00,VALID,917.043,VALID,0,VALID,100,VALID,-0.0509425,VALID,19.1907,VALID,85,VALID,0,
2005-10-08, 00:49:00,VALID,917.04,VALID,0,VALID,100,VALID,-0.101885,VALID,19.1907,VALID,85,VALID,0.0303416,
2005-10-08, 00:50:00,VALID,917.033,VALID,0,VALID,100,VALID,-0.0849042,VALID,19.2036,VALID,85,VALID,0.231468,
2005-10-08, 00:51:00,VALID,917.009,VALID,0,VALID,100,VALID,-0.0509425,VALID,19.1904,VALID,85,VALID,0.435082,
2005-10-08, 00:52:00,VALID,917.001,VALID,0,VALID,100,VALID,-0.0849042,VALID,19.1907,VALID,85,VALID,0.501736,
2005-10-08, 00:53:00,VALID,916.988,VALID,0,VALID,100,VALID,-0.0509425,VALID,19.1842,VALID,93,VALID,0.695833,
2005-10-08, 00:54:00,VALID,916.983,VALID,0,VALID,100,VALID,-0.0679233,VALID,19.1872,VALID,98,VALID,0.717634,
2005-10-08, 00:55:00,VALID,916.982,VALID,0,VALID,100,VALID,-0.0679233,VALID,19.1837,VALID,99,VALID,0.440696,
2005-10-08, 00:56:00,VALID,916.998,VALID,0,VALID,100,VALID,-0.0679233,VALID,19.1964,VALID,99,VALID,0.0797991,
2005-10-08, 00:57:00,VALID,916.988,VALID,0,VALID,100,VALID,-0.0679233,VALID,19.2227,VALID,99,VALID,0,
2005-10-08, 00:58:00,VALID,916.993,VALID,0,VALID,100,VALID,-0.101885,VALID,19.2361,VALID,99,VALID,0,
2005-10-08, 00:59:00,VALID,916.987,VALID,0,VALID,100,VALID,-0.0849042,VALID,19.2515,VALID,99,VALID,0,
2005-10-08, 01:00:00,VALID,916.98,VALID,0,VALID,100,VALID,-0.0509425,VALID,19.2548,VALID,99,VALID,0,
2005-10-08, 01:01:00,VALID,916.99,VALID,0,VALID,100,VALID,-0.0679233,VALID,19.2781,VALID,99,VALID,0.03125,
2005-10-08, 01:02:00,VALID,916.972,VALID,0,VALID,100,VALID,0.0169808,VALID,19.2764,VALID,99,VALID,0.0661337,
2005-10-08, 01:03:00,VALID,916.972,VALID,0,VALID,100,VALID,0.0169808,VALID,19.2799,VALID,99,VALID,0.105569,
2005-10-08, 01:04:00,VALID,916.963,VALID,0,VALID,100,VALID,0.0849042,VALID,19.2824,VALID,99,VALID,0.343568,
2005-10-08, 01:05:00,VALID,916.951,VALID,0,VALID,100,VALID,0.0509425,VALID,19.2861,VALID,99,VALID,0.191679,
2005-10-08, 01:06:00,VALID,916.943,VALID,0,VALID,100,VALID,0.0849042,VALID,19.2759,VALID,101,VALID,0.295099,
2005-10-08, 01:07:00,VALID,916.936,VALID,0,VALID,100,VALID,0.0509425,VALID,19.2826,VALID,101,VALID,0.590376,
2005-10-08, 01:08:00,VALID,916.909,VALID,0,VALID,100,VALID,0,VALID,19.2757,VALID,92,VALID,0.649414,
2005-10-08, 01:09:00,VALID,916.901,VALID,0,VALID,100,VALID,0.0679233,VALID,19.2725,VALID,79,VALID,0.594815,
2005-10-08, 01:10:00,VALID,916.875,VALID,0,VALID,100,VALID,0.0509425,VALID,19.2759,VALID,87,VALID,0.75625,
2005-10-08, 01:11:00,VALID,916.852,VALID,0,VALID,100,VALID,0.0679233,VALID,19.2762,VALID,97,VALID,0.552455,
2005-10-08, 01:12:00,VALID,916.829,VALID,0,VALID,100,VALID,0.0679233,VALID,19.2759,VALID,96,VALID,0.560742,
2005-10-08, 01:13:00,VALID,916.807,VALID,0,VALID,100,VALID,0.0679233,VALID,19.2829,VALID,90,VALID,0.514205,
2005-10-08, 01:14:00,VALID,916.785,VALID,0,VALID,100,VALID,0.0509425,VALID,19.2692,VALID,90,VALID,0.309832,
2005-10-08, 01:15:00,VALID,916.789,VALID,0,VALID,100,VALID,0.0509425,VALID,19.2725,VALID,90,VALID,0.121366,
2005-10-08, 01:16:00,VALID,916.759,VALID,0,VALID,100,VALID,0.0509425,VALID,19.2821,VALID,90,VALID,0.11109,
2005-10-08, 01:17:00,VALID,916.743,VALID,0,VALID,100,VALID,-0.0339617,VALID,19.2995,VALID,90,VALID,0.106001,
2005-10-08, 01:18:00,VALID,916.727,VALID,0,VALID,100,VALID,-0.0849042,VALID,19.2893,VALID,101,VALID,0.603472,
2005-10-08, 01:19:00,VALID,916.721,VALID,0,VALID,100,VALID,-0.0509425,VALID,19.3067,VALID,131,VALID,0.676736,
2005-10-08, 01:20:00,VALID,916.702,VALID,0,VALID,100,VALID,-0.0679233,VALID,19.3002,VALID,130,VALID,0.552284,
2005-10-08, 01:21:00,VALID,916.689,VALID,0,VALID,100,VALID,-0.0509425,VALID,19.3005,VALID,131,VALID,0.731831,
2005-10-08, 01:22:00,VALID,916.669,VALID,0,VALID,100,VALID,-0.101885,VALID,19.2868,VALID,135,VALID,0.830543,
2005-10-08, 01:23:00,VALID,916.661,VALID,0,VALID,100,VALID,-0.101885,VALID,19.2776,VALID,140,VALID,0.705729,
2005-10-08, 01:24:00,VALID,916.633,VALID,0,VALID,100,VALID,-0.118866,VALID,19.2749,VALID,130,VALID,0.406441,
2005-10-08, 01:25:00,VALID,916.615,VALID,0,VALID,100,VALID,-0.0849042,VALID,19.2615,VALID,130,VALID,0.0539435,
2005-10-08, 01:26:00,VALID,916.599,VALID,0,VALID,100,VALID,-0.101885,VALID,19.2709,VALID,125,VALID,0.300781,
2005-10-08, 01:27:00,VALID,916.56,VALID,0,VALID,100,VALID,-0.0849042,VALID,19.2672,VALID,121,VALID,0.398438,
2005-10-08, 01:28:00,VALID,916.55,VALID,0,VALID,100,VALID,-0.0679233,VALID,19.2612,VALID,101,VALID,0.688988,
2005-10-08, 01:29:00,VALID,916.525,VALID,0,VALID,100,VALID,-0.0849042,VALID,19.2612,VALID,102,VALID,0.645898,
2005-10-08, 01:30:00,VALID,916.511,VALID,0,VALID,100,VALID,-0.0509425,VALID,19.2677,VALID,96,VALID,0.262847,
2005-10-08, 01:31:00,VALID,916.495,VALID,0,VALID,100,VALID,-0.0679233,VALID,19.2642,VALID,98,VALID,0.253551,
2005-10-08, 01:32:00,VALID,916.479,VALID,0,VALID,100,VALID,-0.0339617,VALID,19.2469,VALID,108,VALID,0.583891,
2005-10-08, 01:33:00,VALID,916.466,VALID,0,VALID,100,VALID,0.0679233,VALID,19.2635,VALID,108,VALID,0.0866642,
2005-10-08, 01:34:00,VALID,916.457,VALID,0,VALID,100,VALID,0,VALID,19.2533,VALID,108,VALID,0.240885,
2005-10-08, 01:35:00,VALID,916.453,VALID,0,VALID,100,VALID,0.0339617,VALID,19.2469,VALID,108,VALID,0.530382,
2005-10-08, 01:36:00,VALID,916.44,VALID,0,VALID,100,VALID,0.0169808,VALID,19.2337,VALID,89,VALID,0.502604,
2005-10-08, 01:37:00,VALID,916.417,VALID,0,VALID,100,VALID,0.0679233,VALID,19.2441,VALID,93,VALID,0.266319,
2005-10-08, 01:38:00,VALID,916.407,VALID,0,VALID,100,VALID,0.0169808,VALID,19.2399,VALID,100,VALID,0.369391,
2005-10-08, 01:39:00,VALID,916.402,VALID,0,VALID,100,VALID,0.0509425,VALID,19.2568,VALID,106,VALID,0.348474,
2005-10-08, 01:40:00,VALID,916.398,VALID,0,VALID,100,VALID,0.0849042,VALID,19.2464,VALID,109,VALID,0.111049,
2005-10-08, 01:41:00,VALID,916.389,VALID,0,VALID,100,VALID,0.0169808,VALID,19.2603,VALID,109,VALID,0.755451,
2005-10-08, 01:42:00,VALID,916.397,VALID,0,VALID,100,VALID,0.0679233,VALID,19.2503,VALID,136,VALID,0.665551,
2005-10-08, 01:43:00,VALID,916.384,VALID,0,VALID,100,VALID,0.0509425,VALID,19.2367,VALID,133,VALID,0.83346,
2005-10-08, 01:44:00,VALID,916.403,VALID,0,VALID,100,VALID,0.101885,VALID,19.2272,VALID,134,VALID,0.841319,
2005-10-08, 01:45:00,VALID,916.41,VALID,0,VALID,100,VALID,0.0339617,VALID,19.2372,VALID,132,VALID,0.745427,
2005-10-08, 01:46:00,VALID,916.418,VALID,0,VALID,100,VALID,0,VALID,19.2337,VALID,142,VALID,0.388951,
2005-10-08, 01:47:00,VALID,916.429,VALID,0,VALID,100,VALID,0,VALID,19.2245,VALID,127,VALID,0.41183,
2005-10-08, 01:48:00,VALID,916.43,VALID,0,VALID,100,VALID,-0.0339617,VALID,19.2448,VALID,118,VALID,0.00683594,
2005-10-08, 01:49:00,VALID,916.435,VALID,0,VALID,100,VALID,-0.0679233,VALID,19.2578,VALID,118,VALID,0.090554,
2005-10-08, 01:50:00,VALID,916.434,VALID,0,VALID,100,VALID,-0.0509425,VALID,19.2548,VALID,118,VALID,0.113542,
2005-10-08, 01:51:00,VALID,916.424,VALID,0,VALID,100,VALID,-0.101885,VALID,19.2615,VALID,118,VALID,0.173147,
2005-10-08, 01:52:00,VALID,916.409,VALID,0,VALID,100,VALID,-0.0679233,VALID,19.2645,VALID,118,VALID,0.360828,
2005-10-08, 01:53:00,VALID,916.383,VALID,0,VALID,100,VALID,-0.0169808,VALID,19.261,VALID,118,VALID,0.483333,
2005-10-08, 01:54:00,VALID,916.386,VALID,0,VALID,100,VALID,-0.101885,VALID,19.2573,VALID,120,VALID,0.655469,
2005-10-08, 01:55:00,VALID,916.36,VALID,0,VALID,100,VALID,-0.0679233,VALID,19.2545,VALID,133,VALID,0.551136,
2005-10-08, 01:56:00,VALID,916.342,VALID,0,VALID,100,VALID,-0.0509425,VALID,19.2486,VALID,120,VALID,0.635174,
2005-10-08, 01:57:00,VALID,916.335,VALID,0,VALID,100,VALID,-0.0849042,VALID,19.2483,VALID,116,VALID,0.3879,
2005-10-08, 01:58:00,VALID,916.308,VALID,0,VALID,100,VALID,-0.0509425,VALID,19.2672,VALID,114,VALID,0.765443,
2005-10-08, 01:59:00,VALID,916.321,VALID,0,VALID,100,VALID,-0.0509425,VALID,19.2578,VALID,105,VALID,1.00581,
2005-10-08, 02:00:00,VALID,916.314,VALID,0,VALID,100,VALID,-0.0339617,VALID,19.2709,VALID,106,VALID,0.821837,
2005-10-08, 02:01:00,VALID,916.303,VALID,0,VALID,100,VALID,-0.0509425,VALID,19.2739,VALID,94,VALID,0.764898,
2005-10-08, 02:02:00,VALID,916.284,VALID,0,VALID,100,VALID,-0.0339617,VALID,19.2739,VALID,96,VALID,0.215376,
2005-10-08, 02:03:00,VALID,916.279,VALID,0,VALID,100,VALID,-0.0679233,VALID,19.2868,VALID,101,VALID,0.340511,
2005-10-08, 02:04:00,VALID,916.262,VALID,0,VALID,100,VALID,-0.0169808,VALID,19.2935,VALID,134,VALID,0.622159,
2005-10-08, 02:05:00,VALID,916.26,VALID,0,VALID,100,VALID,-0.0339617,VALID,19.2831,VALID,143,VALID,0.61004,
2005-10-08, 02:06:00,VALID,916.254,VALID,0,VALID,100,VALID,-0.0509425,VALID,19.2871,VALID,140,VALID,0.280878,
2005-10-08, 02:07:00,VALID,916.241,VALID,0,VALID,100,VALID,-0.0849042,VALID,19.2804,VALID,114,VALID,0.729611,
2005-10-08, 02:08:00,VALID,916.233,VALID,0,VALID,100,VALID,-0.101885,VALID,19.2774,VALID,109,VALID,0.473242,
2005-10-08, 02:09:00,VALID,916.22,VALID,0,VALID,100,VALID,-0.0849042,VALID,19.2675,VALID,109,VALID,0.111151,
2005-10-08, 02:10:00,VALID,916.204,VALID,0,VALID,100,VALID,-0.0849042,VALID,19.2806,VALID,119,VALID,0.611702,
2005-10-08, 02:11:00,VALID,916.18,VALID,0,VALID,100,VALID,-0.0679233,VALID,19.2809,VALID,112,VALID,0.543341,
2005-10-08, 02:12:00,VALID,916.171,VALID,0,VALID,100,VALID,-0.0509425,VALID,19.2804,VALID,127,VALID,0.696801,
2005-10-08, 02:13:00,VALID,916.17,VALID,0,VALID,100,VALID,-0.0339617,VALID,19.2667,VALID,128,VALID,0.64577,
2005-10-08, 02:14:00,VALID,916.152,VALID,0,VALID,100,VALID,-0.0509425,VALID,19.2739,VALID,134,VALID,0.565952,
2005-10-08, 02:15:00,VALID,916.17,VALID,0,VALID,100,VALID,-0.0169808,VALID,19.2672,VALID,134,VALID,0.416726,
2005-10-08, 02:16:00,VALID,916.191,VALID,0,VALID,100,VALID,-0.0169808,VALID,19.2774,VALID,133,VALID,0.144022,
2005-10-08, 02:17:00,VALID,916.197,VALID,0,VALID,100,VALID,-0.0509425,VALID,19.2739,VALID,112,VALID,0.473828,
2005-10-08, 02:18:00,VALID,916.2,VALID,0,VALID,100,VALID,-0.0339617,VALID,19.2836,VALID,94,VALID,0.306021,
2005-10-08, 02:19:00,VALID,916.193,VALID,0,VALID,100,VALID,0,VALID,19.2804,VALID,109,VALID,0.654102,
2005-10-08, 02:20:00,VALID,916.208,VALID,0,VALID,100,VALID,0,VALID,19.2767,VALID,114,VALID,0.209666,
2005-10-08, 02:21:00,VALID,916.21,VALID,0,VALID,100,VALID,-0.0339617,VALID,19.2868,VALID,114,VALID,0.0470526,
2005-10-08, 02:22:00,VALID,916.197,VALID,0,VALID,100,VALID,-0.0339617,VALID,19.2868,VALID,129,VALID,0.563281,
2005-10-08, 02:23:00,VALID,916.209,VALID,0,VALID,100,VALID,-0.0169808,VALID,19.2968,VALID,125,VALID,0.478338,
2005-10-08, 02:24:00,VALID,916.189,VALID,0,VALID,100,VALID,0,VALID,19.2903,VALID,130,VALID,0.69215,
2005-10-08, 02:25:00,VALID,916.194,VALID,0,VALID,100,VALID,-0.0679233,VALID,19.2771,VALID,117,VALID,0.644159,
2005-10-08, 02:26:00,VALID,916.195,VALID,0,VALID,100,VALID,-0.0339617,VALID,19.2774,VALID,101,VALID,0.996875,
2005-10-08, 02:27:00,VALID,916.185,VALID,0,VALID,100,VALID,-0.0339617,VALID,19.2774,VALID,91,VALID,0.749814,
2005-10-08, 02:28:00,VALID,916.193,VALID,0,VALID,100,VALID,-0.0509425,VALID,19.2806,VALID,75,VALID,0.425604,
2005-10-08, 02:29:00,VALID,916.181,VALID,0,VALID,100,VALID,-0.0679233,VALID,19.2801,VALID,85,VALID,0.271949,
2005-10-08, 02:30:00,VALID,916.19,VALID,0,VALID,100,VALID,0.0169808,VALID,19.2834,VALID,112,VALID,0.425509,
2005-10-08, 02:31:00,VALID,916.187,VALID,0,VALID,100,VALID,-0.0169808,VALID,19.2901,VALID,112,VALID,0.305398,
2005-10-08, 02:32:00,VALID,916.2,VALID,0,VALID,100,VALID,-0.0509425,VALID,19.2965,VALID,112,VALID,0.16276,
2005-10-08, 02:33:00,VALID,916.182,VALID,0,VALID,100,VALID,-0.0169808,VALID,19.2997,VALID,112,VALID,0.0994665,
2005-10-08, 02:34:00,VALID,916.183,VALID,0,VALID,100,VALID,-0.0339617,VALID,19.3129,VALID,112,VALID,0.190549,
2005-10-08, 02:35:00,VALID,916.182,VALID,0,VALID,100,VALID,-0.0339617,VALID,19.2997,VALID,97,VALID,0.538318,
2005-10-08, 02:36:00,VALID,916.175,VALID,0,VALID,100,VALID,-0.0509425,VALID,19.3027,VALID,119,VALID,0.516146,
2005-10-08, 02:37:00,VALID,916.15,VALID,0,VALID,100,VALID,-0.0509425,VALID,19.3127,VALID,140,VALID,0.343928,
2005-10-08, 02:38:00,VALID,916.129,VALID,0,VALID,100,VALID,-0.0509425,VALID,19.3097,VALID,140,VALID,0.472147,
2005-10-08, 02:39:00,VALID,916.113,VALID,0,VALID,100,VALID,0,VALID,19.2928,VALID,140,VALID,0.790551,
2005-10-08, 02:40:00,VALID,916.097,VALID,0.2,VALID,100,VALID,-0.0339617,VALID,19.2863,VALID,123,VALID,0.762674,
2005-10-08, 02:41:00,VALID,916.078,VALID,0,VALID,100,VALID,-0.0339617,VALID,19.2871,VALID,122,VALID,0.674479,
2005-10-08, 02:42:00,VALID,916.049,VALID,0,VALID,100,VALID,-0.0509425,VALID,19.2841,VALID,137,VALID,0.508743,
2005-10-08, 02:43:00,VALID,916.054,VALID,0,VALID,100,VALID,-0.0509425,VALID,19.3,VALID,126,VALID,0.492588,
2005-10-08, 02:44:00,VALID,916.035,VALID,0,VALID,100,VALID,0,VALID,19.2968,VALID,131,VALID,0.691964,
2005-10-08, 02:45:00,VALID,916.013,VALID,0,VALID,100,VALID,-0.0169808,VALID,19.2901,VALID,123,VALID,0.333807,
2005-10-08, 02:46:00,VALID,915.989,VALID,0,VALID,100,VALID,-0.0339617,VALID,19.303,VALID,124,VALID,0.321429,
2005-10-08, 02:47:00,VALID,915.975,VALID,0,VALID,100,VALID,-0.0169808,VALID,19.2963,VALID,124,VALID,0.583507,
2005-10-08, 02:48:00,VALID,915.953,VALID,0,VALID,100,VALID,-0.0339617,VALID,19.296,VALID,142,VALID,0.962573,
2005-10-08, 02:49:00,VALID,915.912,VALID,0,VALID,100,VALID,-0.0169808,VALID,19.2898,VALID,137,VALID,1.11823,
2005-10-08, 02:50:00,VALID,915.884,VALID,0,VALID,100,VALID,-0.0169808,VALID,19.2866,VALID,135,VALID,1.0174,
2005-10-08, 02:51:00,VALID,915.847,VALID,0,VALID,100,VALID,0,VALID,19.2935,VALID,133,VALID,0.889509,
2005-10-08, 02:52:00,VALID,915.82,VALID,0,VALID,100,VALID,-0.0339617,VALID,19.2838,VALID,122,VALID,1.02429,
2005-10-08, 02:53:00,VALID,915.805,VALID,0,VALID,100,VALID,0,VALID,19.2868,VALID,126,VALID,1.05897,
2005-10-08, 02:54:00,VALID,915.777,VALID,0,VALID,100,VALID,-0.0849042,VALID,19.2742,VALID,116,VALID,0.69365,
2005-10-08, 02:55:00,VALID,915.765,VALID,0,VALID,100,VALID,-0.0679233,VALID,19.2804,VALID,125,VALID,0.906622,
2005-10-08, 02:56:00,VALID,915.757,VALID,0,VALID,100,VALID,-0.0679233,VALID,19.2878,VALID,130,VALID,1.23647,
2005-10-08, 02:57:00,VALID,915.747,VALID,0,VALID,100,VALID,-0.0339617,VALID,19.2801,VALID,131,VALID,1.11514,
2005-10-08, 02:58:00,VALID,915.723,VALID,0,VALID,100,VALID,-0.0509425,VALID,19.267,VALID,136,VALID,1.0665,
2005-10-08, 02:59:00,VALID,915.716,VALID,0,VALID,100,VALID,-0.0679233,VALID,19.2709,VALID,131,VALID,1.16094,
2005-10-08, 03:00:00,VALID,915.691,VALID,0,VALID,100,VALID,-0.0509425,VALID,19.2843,VALID,139,VALID,0.987216,
2005-10-08, 03:01:00,VALID,915.674,VALID,0,VALID,100,VALID,-0.0339617,VALID,19.2769,VALID,130,VALID,1.08097,
2005-10-08, 03:02:00,VALID,915.661,VALID,0,VALID,100,VALID,-0.0679233,VALID,19.2903,VALID,135,VALID,0.910528,
2005-10-08, 03:03:00,VALID,915.66,VALID,0,VALID,100,VALID,-0.0339617,VALID,19.3064,VALID,132,VALID,1.08683,
2005-10-08, 03:04:00,VALID,915.665,VALID,0,VALID,100,VALID,-0.0169808,VALID,19.2997,VALID,124,VALID,0.939918,
2005-10-08, 03:05:00,VALID,915.656,VALID,0,VALID,100,VALID,-0.0169808,VALID,19.2958,VALID,136,VALID,0.999442,
2005-10-08, 03:06:00,VALID,915.651,VALID,0,VALID,100,VALID,-0.0679233,VALID,19.3064,VALID,125,VALID,0.64098,
2005-10-08, 03:07:00,VALID,915.666,VALID,0,VALID,100,VALID,-0.0849042,VALID,19.2965,VALID,139,VALID,1.10227,
2005-10-08, 03:08:00,VALID,915.68,VALID,0,VALID,100,VALID,-0.0339617,VALID,19.3097,VALID,141,VALID,0.983259,
2005-10-08, 03:09:00,VALID,915.701,VALID,0,VALID,100,VALID,0,VALID,19.3124,VALID,124,VALID,0.931784,
2005-10-08, 03:10:00,VALID,915.72,VALID,0,VALID,100,VALID,-0.0339617,VALID,19.3064,VALID,135,VALID,0.768111,
2005-10-08, 03:11:00,VALID,915.736,VALID,0,VALID,100,VALID,-0.0169808,VALID,19.2993,VALID,127,VALID,0.466751,
2005-10-08, 03:12:00,VALID,915.741,VALID,0,VALID,100,VALID,0,VALID,19.2963,VALID,132,VALID,0.636541,
2005-10-08, 03:13:00,VALID,915.757,VALID,0,VALID,100,VALID,-0.0509425,VALID,19.3002,VALID,134,VALID,0.778764,
2005-10-08, 03:14:00,VALID,915.777,VALID,0,VALID,100,VALID,-0.0679233,VALID,19.3,VALID,132,VALID,0.250186,
2005-10-08, 03:15:00,VALID,915.803,VALID,0,VALID,100,VALID,-0.0169808,VALID,19.2965,VALID,131,VALID,0.242188,
2005-10-08, 03:16:00,VALID,915.804,VALID,0,VALID,100,VALID,-0.0169808,VALID,19.2938,VALID,128,VALID,0.513148,
2005-10-08, 03:17:00,VALID,915.827,VALID,0,VALID,100,VALID,-0.0679233,VALID,19.2774,VALID,128,VALID,0.373476,
2005-10-08, 03:18:00,VALID,915.836,VALID,0,VALID,100,VALID,-0.0339617,VALID,19.2739,VALID,128,VALID,0.305432,
2005-10-08, 03:19:00,VALID,915.847,VALID,0,VALID,100,VALID,-0.0339617,VALID,19.2737,VALID,120,VALID,0.594494,
2005-10-08, 03:20:00,VALID,915.881,VALID,0,VALID,100,VALID,-0.0169808,VALID,19.2737,VALID,96,VALID,0.501715,
2005-10-08, 03:21:00,VALID,915.898,VALID,0,VALID,100,VALID,-0.0679233,VALID,19.27,VALID,86,VALID,0.534201,
2005-10-08, 03:22:00,VALID,915.921,VALID,0,VALID,100,VALID,-0.0169808,VALID,19.2675,VALID,74,VALID,0.429869,
2005-10-08, 03:23:00,VALID,915.931,VALID,0,VALID,100,VALID,-0.0849042,VALID,19.2742,VALID,69,VALID,0.357701,
2005-10-08, 03:24:00,VALID,915.925,VALID,0,VALID,100,VALID,-0.0169808,VALID,19.2642,VALID,69,VALID,0.363377,
2005-10-08, 03:25:00,VALID,915.939,VALID,0,VALID,100,VALID,0,VALID,19.2483,VALID,69,VALID,0.0882813,
2005-10-08, 03:26:00,VALID,915.928,VALID,0,VALID,100,VALID,-0.0339617,VALID,19.2483,VALID,69,VALID,0.172965,
2005-10-08, 03:27:00,VALID,915.916,VALID,0,VALID,100,VALID,-0.0339617,VALID,19.2347,VALID,69,VALID,0.0859375,
2005-10-08, 03:28:00,VALID,915.909,VALID,0,VALID,100,VALID,-0.0509425,VALID,19.2384,VALID,69,VALID,0.0883557,
2005-10-08, 03:29:00,VALID,915.89,VALID,0,VALID,100,VALID,-0.0339617,VALID,19.2384,VALID,69,VALID,0.00117188,
2005-10-08, 03:30:00,VALID,915.882,VALID,0,VALID,100,VALID,-0.0339617,VALID,19.2317,VALID,69,VALID,0,
2005-10-08, 03:31:00,VALID,915.867,VALID,0,VALID,100,VALID,-0.0339617,VALID,19.2319,VALID,69,VALID,0,
2005-10-08, 03:32:00,VALID,915.845,VALID,0,VALID,100,VALID,-0.0509425,VALID,19.2319,VALID,69,VALID,0.0975654,
2005-10-08, 03:33:00,VALID,915.837,VALID,0,VALID,100,VALID,-0.0679233,VALID,19.2155,VALID,69,VALID,0.231399,
2005-10-08, 03:34:00,VALID,915.831,VALID,0,VALID,100,VALID,-0.0679233,VALID,19.216,VALID,69,VALID,0.313802,
2005-10-08, 03:35:00,VALID,915.83,VALID,0,VALID,100,VALID,-0.0509425,VALID,19.2193,VALID,69,VALID,0.414063,
2005-10-08, 03:36:00,VALID,915.804,VALID,0,VALID,100,VALID,-0.0339617,VALID,19.2029,VALID,80,VALID,0.75651,
2005-10-08, 03:37:00,VALID,915.786,VALID,0,VALID,100,VALID,0,VALID,19.1996,VALID,84,VALID,0.665777,
2005-10-08, 03:38:00,VALID,915.756,VALID,0,VALID,100,VALID,-0.0509425,VALID,19.1999,VALID,84,VALID,0.608422,
2005-10-08, 03:39:00,VALID,915.731,VALID,0,VALID,100,VALID,-0.0169808,VALID,19.1996,VALID,85,VALID,0.540153,